CZ-6A DEB, 61804

Orbit data source: Space-Track

CZ-6A DEB, 61804 is space debris in LEO originally from a launch on Tue, 06 Aug 2024 UTC launched from the Taiyaun Space Center, China (TSC). Debris objects in space refer to the collection of defunct objects orbiting the Earth. Examples of debris include non-operational satellites, rocket bodies, and fragments generated from explosions, collisions, or faulty payload assembly.

Loading next visibility...
Identifier
61804, 2024-140ABU
Orbit
LEO
Country
Flag of CNCN / PRC
Related business
Manufacturer
SAST
Mission
Spacecraft
Bus & Motor
Unknown
Mass
Unknown
Launch date (UTC)
2024-08-06 (2 years ago)
Launch vehicle
Unknown
Launch site
Taiyaun Space Center, China (TSC)
Object type
Payload
Rocket body
Debris
Shape & HBR
Unknown shape, 0.1 m
Radar Cross Section
Medium (>0.1 m² and <1 m²)

Expand to show TLE details & history
Last TLE update: 16 hours ago

TLE from 16 hours ago
0 CZ-6A DEB
1 61804U 24140ABU 26171.29835248  .00007692  00000-0  29830-2 0  9996
2 61804  89.0845 281.3440 0074922 161.8000 198.5904 14.28345618 92062
Epoch: 2026-06-20T07:09Z
TLE epoch observation values (Epoch: 2026-06-20T07:09:37.654Z)
Latitude
0.00003°
Longitude
-94.57787°
Altitude
851.338 km
Speed
7.4 km/s
True Right ascension
18h 45m 22s
True Declination
0° 00' 00"
Sunlit
Object was in full shadow at epoch
Visualization orbit readout
Latitude
Unknown
Longitude
Unknown
Altitude
Unknown
Speed
Unknown
Apparent Right ascension
Unknown
Apparent Declination
Unknown
Sunlit
N/A
Visualization observer readout
Local Sidereal Time
10:18:34
Azimuth
Unknown
Elevation
Unknown
Doppler factor
Unknown
Orbital elements
Apogee altitude
847.941 km
Perigee altitude
740.468 km
Semi-major axis
7,172.342 km
Eccentricity
0.00749
Inclination
89.0845°
RAAN
281.344°
Arg. of periapsis
161.8°
True anomaly
198.31911°
Mean anomaly
198.5904°
Eccentric anomaly
198.45451°
Mean motion
3.57315 °/min
Orbital period
100.75 mins
BSTAR
0.002983
Loading maneuver chart data...
Computing Atmospheric mass density...
Loading historical data...
Loading historical data...
Loading historical data...
Loading historical data...
Loading historical data...
Loading historical data...
Loading historical data...

Documentation

Showing up to 5 results
|